Orbital Elements at Epoch 2459000.5 (2020-May-31.0) TDB
Reference: JPL 16 (heliocentric ecliptic J2000)
Element | Value | Uncertainty (1-sigma) | Units |
e | .1784793241591179 | 6.7602e-08 | |
a | 2.726812599248801 | 5.8674e-08 | au |
q | 2.240132929426307 | 1.9496e-07 | au |
i | 16.92333100558803 | 6.5014e-06 | deg |
node | 96.90768007423098 | 2.4103e-05 | deg |
peri | 277.8023582201561 | 3.1227e-05 | deg |
M | 15.584515762123 | 1.9948e-05 | deg |
tp | 2458929.301281540353 (2020-Mar-20.80128154) | 9.008e-05 | TDB |
period | 1644.679824301534 4.50 | 5.3084e-05 1.453e-07 | d yr |
n | .2188875881376398 | 7.0649e-09 | deg/d |
Q | 3.213492269071294 | 6.9146e-08 | au |
|
| | Orbit Determination Parameters
Additional Information
|